This is the latest recevied weather packets stored in our database for station/object VU2IB-13. If no packets are shown the sender has not sent any weather packets the latest 1 day(s).
| Time | Temp. | Humidity | Pressure | Rain* | Wind** | Luminosity | Snow |
|---|---|---|---|---|---|---|---|
| 1778056614 | 32.22° C | 34% | 1005.5 hPa | - | - | - | - |
| 1778056426 | 32.22° C | 36% | 1005.5 hPa | - | - | - | - |
| 1778056364 | 32.22° C | 36% | 1005.6 hPa | - | - | - | - |
| 1778055992 | 32.22° C | 37% | 1005.7 hPa | - | - | - | - |
| 1778055870 | 32.22° C | 37% | 1005.6 hPa | - | - | - | - |
| 1778055809 | 32.22° C | 37% | 1005.7 hPa | - | - | - | - |
| 1778055748 | 32.22° C | 36% | 1005.7 hPa | - | - | - | - |
| 1778055624 | 32.22° C | 38% | 1005.8 hPa | - | - | - | - |
| 1778055562 | 32.22° C | 37% | 1005.7 hPa | - | - | - | - |
| 1778055501 | 32.22° C | 35% | 1005.8 hPa | - | - | - | - |
| 1778055439 | 32.22° C | 34% | 1005.9 hPa | - | - | - | - |
| 1778055378 | 32.22° C | 35% | 1005.9 hPa | - | - | - | - |
| 1778055317 | 32.22° C | 35% | 1005.9 hPa | - | - | - | - |
| 1778055256 | 32.22° C | 35% | 1005.9 hPa | - | - | - | - |
| 1778055195 | 32.22° C | 39% | 1005.9 hPa | - | - | - | - |
| 1778055134 | 32.22° C | 37% | 1005.9 hPa | - | - | - | - |
| 1778054822 | 31.67° C | 37% | 1006.1 hPa | - | - | - | - |
| 1778054447 | 31.67° C | 46% | 1006.2 hPa | - | - | - | - |
| 1778054386 | 31.67° C | 45% | 1006.2 hPa | - | - | - | - |
| 1778054324 | 31.67° C | 42% | 1006.2 hPa | - | - | - | - |
| 1778054139 | 31.67° C | 36% | 1006.3 hPa | - | - | - | - |
| 1778054015 | 31.67° C | 38% | 1006.4 hPa | - | - | - | - |
| 1778053953 | 31.67° C | 38% | 1006.4 hPa | - | - | - | - |
| 1778053769 | 31.67° C | 48% | 1006.4 hPa | - | - | - | - |
| 1778053708 | 31.67° C | 53% | 1006.4 hPa | - | - | - | - |
* Rain since midnight (hover to see other rain measurements)
** Current wind speed in m/s (hover to see current wind gust speed)